Location: *
(60.1759°S, 155.0663°W)
Time: 05:36:18
(UTC+00:00)

Cosmos 1943 - Pass Details

Date: 17 September 2019
Orbit: 833 x 851 km, 71.0° (Epoch: 18 October)

Event Time Altitude Azimuth Distance (km) Brightness Sun altitude
Exits shadow 13:42:13 33° 272° (W) 1,395 3.9 -19.9°
Maximum altitude 13:44:27 51° 216° (SW) 1,064 3.6 -19.7°
Drops below altitude 10° 13:50:01 10° 140° (SE) 2,485 6.7 -19.1°
Sets 13:52:34 0° 134° (SE) 3,423 7.8 -18.8°
